LEO 1 (LEO VANTAGE 1) (43113 NORAD) Tracking and Keplerian Element Data

This shows tracking and keplerian element data for the satellite.

Feedback or suggestion? Click here.




ElementValue
Catalog43113
NameLEO 1 (LEO VANTAGE 1)
Epoch Orbit32931
Epoch Day160.20938278
Epoch Year2024
RAAN332.1534
Inclination99.2986
Eccentricity0.0377544
Argument of Perigee174.5587
Mean Anonmoly185.9896
Mean Motion14.60367486
Decay Rate8.902E-05
L11 43113U 18004C 24160.20938278 .00008902 00000+0 66349-3 0 9996
L22 43113 99.2986 332.1534 0377544 174.5587 185.9896 14.60367486329314



Live tracking and technical data element details for LEO 1 (LEO VANTAGE 1) (NORAD 43113). LEO 1 (LEO VANTAGE 1) can be tracked NOW for your location showing map with azimuth and elevation plus other details from your city location.







IsCatalogInMostPopularTable: catalog: 43113, numindb: 680
Update: records affected: 1



GetName: 43113 LEO 1 (LEO VANTAGE 1)

Hit Count: updated at: Mon, 17 Jun 2024 23:29:58 GMT